Weather History for Savanna, IL

Change the Weather History Date:

Tuesday, October 22, 2013

  Actual Average (KCWI) Record (KCWI)
Temperature  
Mean Temperature 32 °F -  
Max Temperature 39 °F 63 °F 84 °F (1963)
Min Temperature 25 °F 40 °F 21 °F (1997)
Degree Days  
Heating Degree Days 33    
Moisture  
Dew Point 31 °F    
Average Humidity 93    
Maximum Humidity 97    
Minimum Humidity 88    
Precipitation  
Precipitation 0.14 in - - ()
Sea Level Pressure  
Sea Level Pressure 29.97 in    
Wind  
Wind Speed 1 mph (NNW)    
Max Wind Speed 9 mph    
Max Gust Speed -    
Visibility 8 miles    
Events Rain , Snow    
Averages and records for this station are not official NWS values.
T = Trace of Precipitation, MM = Missing Value Source: NWS Daily Summary

Daily Weather History Graph

Daily Weather History Graph

Search for Another Location

Airport:

Trip Planner

Search our weather history database for the weather conditions in past years. The results will help you decide how hot, cold, wet, or windy it might be!

Date:

Astronomy

Oct. 22, 2013 Rise Set
Actual Time 7:21 AM CDT 6:07 PM CDT
Civil Twilight 6:52 AM CDT 6:36 PM CDT
Nautical Twilight 6:20 AM CDT 7:08 PM CDT
Astronomical Twilight 5:47 AM CDT 7:40 PM CDT
Moon 8:45 PM CDT (10/22) 10:52 AM CDT (10/22)
Length of Visible Light 11h 43m
Length of Day
10h 46m
Waning Gibbous, 86% of the Moon is Illuminated
Oct 22
Waning Gibbous
Oct 26
Last Quarter
Nov 3
New
Nov 9
First Quarter
Nov 17
Full

Hourly Weather History & Observations

Time (CDT) Temp. Windchill Dew Point Humidity Pressure Visibility Wind Dir Wind Speed Gust Speed Precip Events Conditions
12:15 AM 28.9 °F - 27.5 °F 94% 29.99 in 10.0 mi Calm Calm - N/A   Clear
12:35 AM 27.5 °F - 26.1 °F 94% 29.99 in 7.0 mi Calm Calm - N/A   Clear
12:55 AM 28.9 °F - 26.8 °F 92% 29.99 in 10.0 mi Calm Calm - N/A   Clear
1:15 AM 28.0 °F - 26.2 °F 93% 29.99 in 10.0 mi Calm Calm - N/A   Clear
1:35 AM 27.9 °F - 26.1 °F 93% 30.00 in 10.0 mi Calm Calm - N/A   Clear
1:55 AM 28.4 °F - 25.7 °F 90% 30.00 in 10.0 mi Calm Calm - N/A   Clear
2:15 AM 27.5 °F - 25.3 °F 92% 30.00 in 10.0 mi Calm Calm - N/A   Clear
2:35 AM 26.4 °F - 24.4 °F 92% 30.00 in 10.0 mi Calm Calm - N/A   Clear
2:55 AM 26.6 °F - 25.0 °F 94% 30.00 in 10.0 mi Calm Calm - N/A   Clear
3:15 AM 26.6 °F - 24.8 °F 93% 30.00 in 10.0 mi Calm Calm - N/A   Clear
3:35 AM 26.1 °F - 24.4 °F 94% 30.00 in 10.0 mi Calm Calm - N/A   Clear
3:55 AM 25.7 °F - 24.4 °F 95% 29.99 in 10.0 mi Calm Calm - N/A   Clear
4:15 AM 25.7 °F - 24.3 °F 94% 29.99 in 10.0 mi Calm Calm - N/A   Clear
4:35 AM 25.7 °F 21.5 °F 24.4 °F 95% 29.99 in 10.0 mi NE 3.5 mph - N/A   Clear
4:55 AM 25.7 °F - 24.4 °F 95% 29.99 in 10.0 mi Calm Calm - N/A   Clear
5:15 AM 25.7 °F - 24.6 °F 96% 29.99 in 1.2 mi Calm Calm - N/A   Mist
5:35 AM 26.2 °F - 25.2 °F 96% 29.99 in 10.0 mi Calm Calm - N/A   Scattered Clouds
5:55 AM 26.6 °F - 25.5 °F 96% 29.99 in 10.0 mi Calm Calm - N/A   Overcast
6:15 AM 28.2 °F - 27.0 °F 95% 29.99 in 10.0 mi Calm Calm - N/A   Overcast
6:35 AM 28.8 °F - 27.3 °F 94% 29.98 in 10.0 mi Calm Calm - N/A   Overcast
6:55 AM 29.5 °F - 28.0 °F 94% 29.98 in 10.0 mi Calm Calm - N/A   Overcast
7:15 AM 29.8 °F - 28.4 °F 94% 29.98 in 10.0 mi Calm Calm - N/A   Overcast
7:35 AM 30.6 °F 27.1 °F 29.1 °F 94% 29.98 in 10.0 mi ENE 3.5 mph - N/A   Overcast
7:55 AM 31.1 °F - 29.8 °F 95% 29.99 in 10.0 mi Calm Calm - N/A   Overcast
8:15 AM 32.0 °F - 30.7 °F 95% 29.99 in 10.0 mi Calm Calm - N/A   Overcast
8:35 AM 32.4 °F - 31.1 °F 95% 29.99 in 10.0 mi Calm Calm - N/A   Overcast
8:55 AM 32.9 °F - 31.6 °F 95% 29.99 in 3.0 mi Calm Calm - N/A Snow Light Snow
9:15 AM 33.3 °F - 32.0 °F 95% 29.98 in 1.5 mi Calm Calm - N/A Snow Light Snow
9:35 AM 33.3 °F - 32.2 °F 96% 29.98 in 3.0 mi Calm Calm - N/A Snow Light Snow
9:55 AM 33.8 °F - 32.7 °F 96% 29.98 in 2.5 mi Calm Calm - N/A Snow Light Snow
10:15 AM 33.3 °F - 32.0 °F 95% 29.98 in 0.8 mi Calm Calm - 0.02 in Snow Light Snow
10:35 AM 32.9 °F - 32.0 °F 96% 29.97 in 0.8 mi Calm Calm - 0.04 in Snow Light Snow
10:55 AM 33.1 °F - 32.2 °F 96% 29.98 in 0.8 mi Calm Calm - 0.06 in Snow Light Snow
11:15 AM 33.1 °F - 32.4 °F 97% 29.97 in 1.0 mi Calm Calm - 0.01 in Snow Light Snow
11:35 AM 33.1 °F 30.0 °F 32.4 °F 97% 29.97 in 1.2 mi NNE 3.5 mph - 0.02 in Snow Light Snow
11:55 AM 33.3 °F 30.2 °F 32.5 °F 97% 29.97 in 1.2 mi NE 3.5 mph - 0.03 in Snow Light Snow
12:15 PM 33.6 °F 30.6 °F 32.9 °F 97% 29.96 in 1.5 mi NE 3.5 mph - 0.01 in Snow Light Snow
12:35 PM 33.8 °F 29.6 °F 32.9 °F 96% 29.96 in 2.5 mi NNE 4.6 mph - 0.01 in Snow Light Snow
12:55 PM 34.2 °F 30.0 °F 33.3 °F 97% 29.95 in 3.0 mi NE 4.6 mph - 0.02 in Snow Light Snow
1:15 PM 34.3 °F 31.4 °F 33.3 °F 96% 29.94 in 3.0 mi NE 3.5 mph - N/A Snow Light Snow
1:35 PM 34.7 °F - 33.3 °F 94% 29.94 in 3.0 mi Calm Calm - 0.01 in Snow Light Snow
1:55 PM 34.7 °F 31.8 °F 33.4 °F 95% 29.93 in 3.0 mi ENE 3.5 mph - 0.02 in Snow Light Snow
2:15 PM 35.2 °F 31.2 °F 34.0 °F 95% 29.93 in 7.0 mi ENE 4.6 mph - N/A Rain Light Rain
2:35 PM 36.0 °F 33.3 °F 34.7 °F 95% 29.92 in 10.0 mi ENE 3.5 mph - N/A Rain Light Rain
2:55 PM 36.9 °F 34.3 °F 35.2 °F 94% 29.93 in 10.0 mi NNE 3.5 mph - 0.01 in Rain Light Rain
3:15 PM 37.4 °F 33.8 °F 35.8 °F 94% 29.93 in 10.0 mi North 4.6 mph - N/A Rain Light Rain
3:35 PM 38.3 °F - 36.1 °F 92% 29.93 in 10.0 mi Calm Calm - N/A Rain Light Rain
3:55 PM 38.5 °F 35.0 °F 36.5 °F 93% 29.93 in 10.0 mi North 4.6 mph - N/A   Light Drizzle
4:15 PM 38.5 °F - 36.3 °F 92% 29.93 in 10.0 mi Calm Calm - N/A   Overcast
4:35 PM 39.2 °F - 36.5 °F 90% 29.93 in 10.0 mi Calm Calm - N/A   Overcast
4:55 PM 39.2 °F 35.9 °F 36.7 °F 91% 29.94 in 10.0 mi NW 4.6 mph - N/A   Overcast
5:15 PM 38.8 °F 36.5 °F 36.5 °F 91% 29.95 in 10.0 mi NW 3.5 mph - N/A   Overcast
5:35 PM 39.0 °F 36.8 °F 36.5 °F 91% 29.95 in 10.0 mi WNW 3.5 mph - N/A   Overcast
5:55 PM 39.2 °F - 36.5 °F 90% 29.95 in 10.0 mi Calm Calm - N/A   Overcast
6:15 PM 39.2 °F 37.0 °F 36.5 °F 90% 29.95 in 10.0 mi West 3.5 mph - N/A   Overcast
6:35 PM 39.2 °F 37.0 °F 36.3 °F 89% 29.95 in 10.0 mi West 3.5 mph - N/A   Overcast
6:55 PM 38.8 °F - 36.1 °F 90% 29.96 in 10.0 mi Calm Calm - N/A   Overcast
7:15 PM 39.2 °F 37.0 °F 36.5 °F 90% 29.96 in 10.0 mi West 3.5 mph - N/A   Overcast
7:35 PM 39.2 °F 37.0 °F 36.1 °F 89% 29.96 in 10.0 mi West 3.5 mph - N/A   Overcast
7:55 PM 39.2 °F 37.0 °F 36.3 °F 89% 29.96 in 10.0 mi West 3.5 mph - N/A   Overcast
8:15 PM 39.2 °F - 36.3 °F 89% 29.96 in 10.0 mi Calm Calm - N/A   Overcast
8:35 PM 39.4 °F 37.2 °F 36.1 °F 88% 29.96 in 10.0 mi WNW 3.5 mph - N/A   Overcast
8:55 PM 38.3 °F - 35.6 °F 90% 29.97 in 10.0 mi Calm Calm - N/A   Overcast
9:35 PM 38.1 °F 34.6 °F 35.2 °F 89% 29.97 in 10.0 mi WNW 4.6 mph - N/A   Mostly Cloudy
10:15 PM 37.8 °F 31.3 °F 35.1 °F 90% 29.97 in 10.0 mi WNW 9.2 mph - N/A   Overcast
10:35 PM 37.4 °F 32.1 °F 34.7 °F 90% 29.97 in 10.0 mi WNW 6.9 mph - N/A   Scattered Clouds
10:55 PM 36.7 °F 30.5 °F 34.0 °F 90% 29.97 in 10.0 mi WNW 8.1 mph - N/A   Scattered Clouds
11:15 PM 36.0 °F 31.1 °F 33.6 °F 91% 29.98 in 10.0 mi NW 5.8 mph - N/A   Scattered Clouds
11:35 PM 35.2 °F 30.3 °F 33.1 °F 92% 29.98 in 10.0 mi NW 5.8 mph - N/A   Mostly Cloudy
11:55 PM 35.6 °F 29.2 °F 32.5 °F 89% 29.98 in 10.0 mi NW 8.1 mph - N/A   Mostly Cloudy